EDT,Max TemperatureF,Mean TemperatureF,Min TemperatureF,Max Dew PointF,MeanDew PointF,Min DewpointF,Max Humidity, Mean Humidity, Min Humidity, Max Sea Level PressureIn, Mean Sea Level PressureIn, Min Sea Level PressureIn, Max VisibilityMiles, Mean VisibilityMiles, Min VisibilityMiles, Max Wind SpeedMPH, Mean Wind SpeedMPH, Max Gust SpeedMPH,PrecipitationIn, CloudCover, Events, WindDirDegrees
2010-8-1,77,72,67,70,68,66,100,91,82,30.05,29.96,29.87,10,6,2,15,5,20,T,7,Rain,165
2010-8-2,79,73,67,70,68,66,100,87,74,30.18,30.10,30.03,10,8,4,14,6,16,0.00,8,,164
2010-8-3,89,81,72,73,70,66,100,75,50,30.23,30.13,30.04,10,6,1,13,3,16,0.00,5,,166
2010-8-4,90,80,70,73,71,67,100,74,47,30.15,30.06,29.95,10,5,0,10,2,12,0.00,3,Fog,186
2010-8-5,90,80,69,73,70,67,100,76,52,30.02,29.92,29.86,10,9,4,20,3,29,0.04,2,Rain-Thunderstorm,263
2010-8-6,86,77,67,72,68,66,100,81,62,30.01,29.92,29.83,10,7,1,13,6,17,0.03,4,Rain-Thunderstorm,329
2010-8-7,84,74,63,68,65,63,100,78,55,30.06,29.97,29.91,10,7,2,12,3,16,0.00,4,,192
2010-8-8,87,76,64,70,66,63,100,74,48,30.12,30.03,29.96,10,5,0,12,2,16,0.00,3,Fog,191
2010-8-9,90,78,66,70,67,65,100,73,46,30.16,30.07,30.00,10,5,0,12,3,16,T,4,Fog,176
2010-8-10,91,78,65,73,68,64,100,75,50,30.14,30.06,29.98,10,6,0,16,4,20,0.00,3,Fog,328
2010-8-11,92,81,69,74,71,68,100,74,47,30.07,29.96,29.90,10,7,4,13,3,15,T,2,,295
2010-8-12,92,81,70,73,70,67,100,72,44,29.99,29.88,29.81,10,9,6,14,5,20,T,0,,331
2010-8-13,92,80,68,73,70,67,100,74,47,30.04,29.91,29.83,10,5,0,10,3,15,T,2,Fog-Rain,192
2010-8-14,82,76,70,72,70,68,93,81,69,30.14,30.04,29.95,10,9,5,13,4,16,0.13,7,Rain,157
2010-8-15,87,79,70,72,70,69,100,81,61,30.13,30.04,29.94,10,8,0,14,3,21,0.74,7,Fog-Rain-Thunderstorm,180
2010-8-16,85,78,70,72,70,69,100,81,61,30.15,30.05,29.98,10,7,0,12,3,16,0.00,6,Fog,167
2010-8-17,82,76,69,74,71,69,100,85,69,30.14,30.09,30.02,10,6,0,14,1,18,0.61,6,Fog-Rain,200
2010-8-18,86,78,70,74,71,69,100,79,57,30.15,30.08,29.96,10,6,0,16,3,23,0.81,6,Fog-Rain,308
2010-8-19,83,77,71,73,71,69,100,85,69,30.08,29.98,29.86,10,9,4,16,5,21,0.04,6,Rain-Thunderstorm,197
2010-8-20,84,76,67,70,68,66,100,78,55,30.07,30.00,29.93,10,7,0,9,3,15,0.00,4,Fog,356
2010-8-21,73,70,67,72,69,66,100,94,87,30.10,30.03,29.95,10,5,1,8,1,12,1.02,7,Rain,186
2010-8-22,86,77,68,70,68,63,100,74,48,30.06,29.98,29.89,10,7,0,20,7,24,0.00,4,Fog,342
2010-8-23,83,74,64,64,61,56,93,67,40,29.94,29.91,29.87,10,10,7,15,7,20,T,1,,350
2010-8-24,81,71,61,66,63,60,93,74,54,29.99,29.90,29.85,10,9,6,12,2,15,0.05,5,Rain,340
2010-8-25,81,73,65,66,64,61,93,74,54,30.06,29.99,29.92,10,9,5,10,4,14,T,6,Rain,185
2010-8-26,83,73,62,67,63,61,93,74,54,30.10,30.05,30.02,10,9,6,17,4,23,T,2,,294
2010-8-27,82,72,62,68,64,61,100,79,58,30.18,30.12,30.05,10,5,0,12,2,15,0.00,4,Fog,178
2010-8-28,82,73,63,68,65,62,100,77,54,30.29,30.20,30.12,10,4,0,14,3,16,0.00,5,Fog,165
2010-8-29,83,72,61,67,63,60,100,76,51,30.37,30.30,30.22,10,3,0,13,2,16,0.00,3,Fog,166
2010-8-30,83,73,63,66,63,55,100,71,42,30.40,30.33,30.24,10,5,0,13,2,16,0.00,3,Fog,316
2010-8-31,86,72,57,62,58,49,100,67,33,30.36,30.27,30.17,10,6,0,10,2,14,0.00,2,Fog,308